User: anonymous   Login
Location: Brede
(50.9167°N, 0.6000°E)
Time: 09:21:53
(UTC+00:00)
Language:

COSMOS 2487 - Orbit

View from above orbital plane
View from above orbital plane
View from above satellite
View from above satellite

Ground track
Ground track

The orbit data is extracted from the following two-line orbital elements,

1 39194U 13032A   20294.13617150  .00003823  00000-0  91241-4 0  9993
2 39194  74.7086 144.8965 0003274 258.5218 101.5627 15.41867134409289
Epoch (UTC): 20 October 2020 03:16:05
Eccentricity: 0.0003274
inclination: 74.7086°
perigee height: 438 km
apogee height: 443 km
right ascension of ascending node: 144.8965°
argument of perigee: 258.5218°
revolutions per day: 15.41867134
mean anomaly at epoch: 101.5627°
orbit number at epoch: 40928

The dashed part of the orbit path shows where the satellite is in the earth's shadow,  

DLR